Location: Shenandoah County Park
(38.9356°N, 78.4524°W)
Time: 11:42:34
(UTC-05:00)

Envisat - Pass Details

Date: 06 October 2022
Orbit: 763 x 765 km, 98.2° (Epoch: 29 November)

Event Time Altitude Azimuth Distance (km) Brightness Sun altitude
Rises 06:27:56 0° 0° (N) 3,240 6.3 -9.9°
Reaches altitude 10° 06:30:31 10° 350° (N) 2,309 5.4 -9.4°
Maximum altitude 06:34:47 28° 292° (WNW) 1,407 3.9 -8.5°
Drops below altitude 10° 06:39:03 10° 235° (SW) 2,295 5.0 -7.7°
Sets 06:41:37 0° 224° (SW) 3,217 5.8 -7.2°
